Cherokee, IA

9:57 AM CDT on July 24, 2017 (GMT -0500)
Cherokee Municipal

Weather History for KCKP - February, 2014

Change the Weather History Date:

Wednesday, February 26, 2014

  Actual Average Record
Temperature  
Mean Temperature 7 °F -  
Max Temperature 25 °F 38 °F 59 °F (1976)
Min Temperature -11 °F 15 °F -19 °F (1963)
Degree Days  
Heating Degree Days 58    
Moisture  
Dew Point -1 °F    
Average Humidity 69    
Maximum Humidity 82    
Minimum Humidity 52    
Precipitation  
Precipitation 0.00 in - - ()
Sea Level Pressure  
Sea Level Pressure 30.07 in    
Wind  
Wind Speed 9 mph (WSW)    
Max Wind Speed 24 mph    
Max Gust Speed 32 mph    
Visibility 10 miles    
Events      
Averages and records for this station are not official NWS values.
T = Trace of Precipitation, MM = Missing Value Source: NWS Daily Summary

Daily Weather History Graph

Daily Weather History Graph

Search for Another Location

Airport or City:

Trip Planner

Search our weather history database for the weather conditions in past years. The results will help you decide how hot, cold, wet, or windy it might be!

Date:

Astronomy

Feb. 26, 2014 Rise Set
Actual Time 7:02 AM CST 6:08 PM CST
Civil Twilight 6:34 AM CST 6:36 PM CST
Nautical Twilight 6:01 AM CST 7:09 PM CST
Astronomical Twilight 5:28 AM CST 7:42 PM CST
Moon 4:52 AM CST (2/26) 3:21 PM CST (2/26)
Length of Visible Light 12h 02m
Length of Day
11h 05m
Waning Crescent, 10% of the Moon is Illuminated
Feb 26
Waning Crescent
Mar 1
New
Mar 8
First Quarter
Mar 16
Full
Mar 23
Last Quarter

Hourly Weather History & Observations

Time (CST) Temp. Windchill Dew Point Humidity Pressure Visibility Wind Dir Wind Speed Gust Speed Precip Events Conditions
12:15 AM -2.2 °F -12.5 °F -8.5 °F 75% 30.41 in 10.0 mi WNW 4.6 mph - N/A   Clear
12:35 AM -3.1 °F -11.4 °F -8.7 °F 77% 30.41 in 10.0 mi WNW 3.5 mph - N/A   Clear
12:55 AM -3.3 °F -11.6 °F -8.7 °F 78% 30.41 in 10.0 mi West 3.5 mph - N/A   Clear
1:15 AM -5.6 °F -16.5 °F -11.7 °F 75% 30.42 in 10.0 mi SW 4.6 mph - N/A   Clear
1:35 AM -7.8 °F -19.0 °F -13.0 °F 78% 30.41 in 10.0 mi West 4.6 mph - N/A   Clear
1:55 AM -7.1 °F -18.1 °F -11.9 °F 79% 30.40 in 10.0 mi WNW 4.6 mph - N/A   Clear
2:15 AM -8.0 °F - -13.0 °F 79% 30.39 in 10.0 mi Calm Calm - N/A   Clear
2:35 AM -8.1 °F - -12.8 °F 80% 30.38 in 10.0 mi Calm Calm - N/A   Clear
2:55 AM -8.5 °F - -13.0 °F 81% 30.36 in 10.0 mi Calm Calm - N/A   Clear
3:15 AM -9.4 °F - -14.1 °F 80% 30.34 in 10.0 mi Calm Calm - N/A   Clear
3:35 AM -10.3 °F -19.6 °F -14.8 °F 81% 30.33 in 10.0 mi SW 3.5 mph - N/A   Clear
3:55 AM -10.7 °F -20.0 °F -14.8 °F 82% 30.32 in 10.0 mi South 3.5 mph - N/A   Clear
4:15 AM -10.3 °F -23.8 °F -14.8 °F 81% 30.31 in 10.0 mi SSW 5.8 mph - N/A   Clear
4:35 AM -10.7 °F -24.2 °F -14.8 °F 82% 30.31 in 10.0 mi SSW 5.8 mph - N/A   Clear
4:55 AM -10.5 °F -22.1 °F -14.8 °F 81% 30.30 in 10.0 mi SSW 4.6 mph - N/A   Clear
5:15 AM -11.2 °F -24.8 °F -15.7 °F 80% 30.29 in 10.0 mi SSW 5.8 mph - N/A   Clear
5:35 AM -11.6 °F -26.9 °F -15.9 °F 81% 30.28 in 10.0 mi SSW 6.9 mph - N/A   Clear
5:55 AM -11.7 °F -28.5 °F -15.9 °F 82% 30.27 in 10.0 mi SSW 8.1 mph - N/A   Clear
6:15 AM -10.5 °F -25.6 °F -14.8 °F 81% 30.25 in 10.0 mi SSW 6.9 mph - N/A   Clear
6:35 AM -9.8 °F -24.7 °F -14.1 °F 81% 30.25 in 10.0 mi South 6.9 mph - N/A   Clear
6:55 AM -10.3 °F -25.4 °F -14.8 °F 81% 30.23 in 10.0 mi SSW 6.9 mph - N/A   Clear
7:15 AM -9.8 °F -23.1 °F -14.1 °F 81% 30.22 in 10.0 mi South 5.8 mph - N/A   Clear
7:35 AM -9.4 °F -24.3 °F -13.5 °F 82% 30.21 in 10.0 mi South 6.9 mph - N/A   Clear
7:55 AM -8.1 °F -22.7 °F -12.5 °F 81% 30.20 in 10.0 mi South 6.9 mph - N/A   Clear
8:15 AM -6.9 °F -21.2 °F -11.2 °F 81% 30.19 in 10.0 mi SSW 6.9 mph - N/A   Clear
8:35 AM -4.7 °F -21.1 °F -9.2 °F 81% 30.19 in 10.0 mi SW 9.2 mph - N/A   Clear
8:55 AM -2.7 °F -18.6 °F -8.0 °F 78% 30.17 in 10.0 mi SSW 9.2 mph - N/A   Clear
9:15 AM -0.6 °F -17.8 °F -6.7 °F 75% 30.16 in 10.0 mi SSW 11.5 mph - N/A   Clear
9:35 AM 2.1 °F -14.4 °F -4.4 °F 74% 30.15 in 10.0 mi SW 11.5 mph - N/A   Clear
9:55 AM 4.1 °F -11.1 °F -3.5 °F 71% 30.14 in 10.0 mi SW 10.4 mph - N/A   Clear
10:15 AM 5.4 °F -6.5 °F -2.0 °F 72% 30.13 in 10.0 mi SW 6.9 mph - N/A   Clear
10:35 AM 7.0 °F -9.1 °F -0.9 °F 70% 30.09 in 10.0 mi SW 12.7 mph - N/A   Clear
10:55 AM 9.0 °F -7.3 °F 1.2 °F 71% 30.08 in 10.0 mi SW 13.8 mph 17.3 mph N/A   Clear
11:15 AM 10.4 °F -7.2 °F 1.6 °F 68% 30.06 in 10.0 mi SW 17.3 mph - N/A   Clear
11:35 AM 11.7 °F -6.0 °F 2.8 °F 68% 30.04 in 10.0 mi SW 18.4 mph 24.2 mph N/A   Clear
11:55 AM 12.9 °F -4.9 °F 4.1 °F 68% 30.01 in 10.0 mi SW 19.6 mph 25.3 mph N/A   Clear
12:15 PM 13.8 °F -1.7 °F 5.0 °F 68% 29.99 in 10.0 mi SW 15.0 mph 25.3 mph N/A   Clear
12:35 PM 15.6 °F 0.6 °F 7.2 °F 69% 29.97 in 10.0 mi SW 15.0 mph 23.0 mph N/A   Clear
12:55 PM 17.6 °F 1.7 °F 8.4 °F 67% 29.95 in 10.0 mi SW 18.4 mph 26.5 mph N/A   Clear
1:15 PM 19.4 °F 2.1 °F 8.4 °F 62% 29.94 in 10.0 mi WSW 24.2 mph 32.2 mph N/A   Clear
1:35 PM 19.9 °F 4.3 °F 8.4 °F 61% 29.92 in 10.0 mi WSW 19.6 mph 25.3 mph N/A   Clear
1:55 PM 20.7 °F 4.9 °F 9.7 °F 63% 29.89 in 10.0 mi WSW 20.7 mph 25.3 mph N/A   Clear
2:15 PM 21.4 °F 5.8 °F 9.9 °F 61% 29.88 in 10.0 mi WSW 20.7 mph 29.9 mph N/A   Clear
2:35 PM 22.1 °F 6.8 °F 10.8 °F 62% 29.86 in 10.0 mi WSW 20.7 mph 29.9 mph N/A   Clear
2:55 PM 23.0 °F 9.2 °F 11.7 °F 62% 29.84 in 10.0 mi WSW 17.3 mph 25.3 mph N/A   Clear
3:15 PM 24.3 °F 11.7 °F 11.7 °F 59% 29.83 in 10.0 mi WSW 15.0 mph 21.9 mph N/A   Clear
3:35 PM 24.8 °F 10.7 °F 9.7 °F 53% 29.83 in 10.0 mi WSW 19.6 mph 23.0 mph N/A   Clear
3:55 PM 25.0 °F 11.3 °F 9.3 °F 52% 29.82 in 10.0 mi West 18.4 mph 25.3 mph N/A   Clear
4:15 PM 25.3 °F 13.1 °F 9.9 °F 52% 29.81 in 10.0 mi WSW 15.0 mph 27.6 mph N/A   Clear
4:35 PM 24.8 °F 11.5 °F 10.0 °F 54% 29.81 in 10.0 mi West 17.3 mph 25.3 mph N/A   Clear
4:55 PM 25.2 °F 12.0 °F 10.4 °F 54% 29.81 in 10.0 mi West 17.3 mph 25.3 mph N/A   Clear
5:15 PM 24.8 °F 11.9 °F 10.8 °F 55% 29.81 in 10.0 mi West 16.1 mph 23.0 mph N/A   Clear
5:35 PM 24.8 °F 14.0 °F 10.8 °F 55% 29.82 in 10.0 mi West 11.5 mph 19.6 mph N/A   Clear
5:55 PM 23.9 °F 11.7 °F 10.6 °F 57% 29.82 in 10.0 mi WNW 13.8 mph 20.7 mph N/A   Clear
6:15 PM 23.2 °F 11.4 °F 10.4 °F 58% 29.83 in 10.0 mi WNW 12.7 mph 20.7 mph N/A   Clear
6:35 PM 23.0 °F 11.1 °F 9.9 °F 57% 29.83 in 10.0 mi WNW 12.7 mph 26.5 mph N/A   Clear
6:55 PM 22.1 °F 9.5 °F 10.4 °F 61% 29.84 in 10.0 mi WNW 13.8 mph - N/A   Clear
7:15 PM 21.2 °F 9.5 °F 10.8 °F 64% 29.84 in 10.0 mi West 11.5 mph 17.3 mph N/A   Clear
7:35 PM 20.8 °F 9.7 °F 10.9 °F 66% 29.85 in 10.0 mi West 10.4 mph 16.1 mph N/A   Clear
7:55 PM 20.7 °F 8.2 °F 11.7 °F 68% 29.86 in 10.0 mi WNW 12.7 mph 17.3 mph N/A   Clear
8:15 PM 21.2 °F 8.9 °F 11.5 °F 66% 29.87 in 10.0 mi NW 12.7 mph 19.6 mph N/A   Clear
8:35 PM 20.7 °F 8.2 °F 9.9 °F 63% 29.88 in 10.0 mi NW 12.7 mph 18.4 mph N/A   Clear
8:55 PM 19.8 °F 7.1 °F 7.5 °F 59% 29.89 in 10.0 mi NNW 12.7 mph 20.7 mph N/A   Clear
9:15 PM 18.5 °F 3.3 °F 6.4 °F 59% 29.91 in 10.0 mi NNW 17.3 mph 25.3 mph N/A   Clear
9:35 PM 17.4 °F 2.4 °F 5.9 °F 61% 29.92 in 10.0 mi NNW 16.1 mph 24.2 mph N/A   Clear
9:55 PM 15.8 °F 0.9 °F 5.9 °F 65% 29.93 in 10.0 mi NNW 15.0 mph 18.4 mph N/A   Clear
10:15 PM 14.7 °F 2.9 °F 5.7 °F 68% 29.94 in 10.0 mi North 9.2 mph - N/A   Clear
10:35 PM 14.0 °F -2.5 °F 4.8 °F 67% 29.95 in 10.0 mi North 17.3 mph 24.2 mph N/A   Clear
10:55 PM 13.1 °F -2.0 °F 3.0 °F 64% 29.96 in 10.0 mi North 13.8 mph - N/A   Clear
11:15 PM 12.0 °F -3.4 °F 1.6 °F 63% 29.96 in 10.0 mi North 13.8 mph 24.2 mph N/A   Clear
11:35 PM 10.9 °F -7.0 °F 0.9 °F 64% 29.97 in 10.0 mi North 18.4 mph - N/A   Clear
11:55 PM 9.5 °F -5.9 °F -0.4 °F 64% 29.99 in 10.0 mi North 12.7 mph 18.4 mph N/A   Clear